Probability
0 0 0 0 0 0 0 0 0 0 0 0 0 1 4 6 6 8 13 18 21 23 25 29 32 29 26 26 28 29 29 30 28 28 28 28 29 26 20 17 18 16 12 10
0 0 0 0 0 0 0 0 0 0 0 0 0 2 6 9 9 10 13 17 21 23 25 29 32 31 28 27 28 27 27 28 27 25 25 25 25 21 15 14 17 16 13 10
0 0 0 0 0 0 0 0 0 0 0 0 0 2 6 10 12 11 12 16 20 21 23 26 29 30 29 28 27 24 25 26 26 24 22 20 19 15 12 12 16 18 15 12
0 0 0 0 0 0 0 0 0 0 0 0 0 1 5 10 11 10 9 13 18 20 20 23 24 25 27 28 26 24 24 26 26 25 23 20 17 15 15 16 17 18 18 17
0 0 0 0 0 0 0 0 0 0 0 0 0 0 3 8 10 9 9 12 15 18 19 22 23 23 24 25 25 25 24 25 27 27 26 23 19 18 20 20 19 19 20 20
0 0 0 0 0 0 0 0 0 0 0 0 0 0 2 6 7 7 9 10 11 13 17 20 22 22 21 22 23 23 24 26 27 26 25 24 22 21 22 22 21 21 20 19
0 0 0 0 0 0 0 0 0 0 0 0 0 1 2 5 6 6 6 8 8 9 12 16 19 19 19 20 21 20 21 23 23 23 23 23 23 21 21 22 21 21 19 18
0 0 0 0 0 0 0 0 0 0 0 0 0 1 2 4 5 5 6 7 8 8 9 11 13 13 14 16 17 16 15 16 17 19 19 19 19 18 18 19 20 19 19 18
0 0 0 0 0 0 0 0 0 0 0 0 0 0 1 1 3 5 6 7 8 8 7 7 8 7 7 9 11 11 11 12 14 15 14 14 14 15 16 18 19 19 19 18
0 0 0 0 0 0 0 0 0 0 0 0 0 0 0 1 2 4 6 7 7 6 5 5 5 5 4 5 7 9 10 11 13 13 11 11 12 12 13 15 16 17 17 17
0 0 0 0 0 0 0 0 0 0 0 0 0 0 0 2 4 5 6 6 6 4 3 4 5 5 4 4 6 8 9 10 11 10 9 9 10 10 10 10 10 11 12 12
0 0 0 0 0 0 0 0 0 0 0 0 0 0 0 2 5 6 6 6 5 4 3 4 5 5 4 4 6 7 7 8 8 7 7 7 7 7 7 8 7 7 7 7
0 0 0 0 0 0 0 0 0 0 0 0 0 0 1 3 5 6 7 6 5 4 5 6 7 6 5 5 6 6 6 6 6 6 5 4 4 5 5 6 6 5 4 3
0 0 0 0 0 0 0 0 0 0 0 0 0 0 2 3 6 8 8 7 6 5 6 8 8 7 6 6 6 6 6 5 5 4 3 3 3 3 3 2 2 2 1 2
0 0 0 0 0 0 0 0 0 0 0 0 0 0 2 4 7 10 9 7 7 6 6 8 8 8 7 7 6 6 6 5 4 3 2 2 2 2 1 1 1 1 0 1
0 0 0 0 0 0 0 0 0 0 0 1 1 1 3 5 6 7 7 7 7 6 6 8 10 11 10 9 8 7 6 5 4 3 2 1 1 1 1 2 2 1 0 0
2 1 0 0 0 0 0 0 1 1 1 1 2 2 3 4 4 4 5 5 6 6 6 8 12 15 15 13 11 9 6 5 4 4 2 1 0 0 1 2 2 1 0 0
5 4 2 0 0 0 0 0 1 2 3 2 2 2 3 3 3 5 5 5 6 7 8 10 14 17 18 17 14 11 7 5 4 4 2 1 0 0 1 1 1 1 1 1
5 5 3 1 0 0 0 1 1 3 4 4 4 5 4 4 5 7 7 6 6 8 11 13 15 16 17 17 15 12 9 6 4 4 3 1 0 0 0 1 2 2 3 3
3 4 3 1 0 1 1 1 2 3 6 6 7 9 7 6 7 9 10 9 8 11 15 16 16 16 16 17 17 14 11 8 6 4 3 2 1 0 0 2 4 5 5 5
2 3 2 1 1 1 2 2 3 5 7 8 10 10 8 7 8 10 11 11 12 15 19 20 19 18 19 20 20 16 12 10 8 6 4 4 3 1 1 4 8 9 8 6
1 2 3 4 3 3 3 4 6 9 9 10 10 9 8 9 10 10 11 13 15 18 21 24 24 23 22 22 20 17 13 11 9 7 6 6 6 4 3 6 9 10 9 8
1 2 5 6 6 5 5 6 9 10 9 8 8 9 10 10 10 9 11 14 16 17 20 24 26 26 23 20 18 16 14 12 10 9 8 9 9 7 6 7 8 8 8 8
3 4 5 5 5 5 5 6 7 8 7 5 5 8 9 9 9 9 11 13 14 14 16 20 23 23 20 17 16 16 15 14 13 12 12 12 10 8 7 7 6 6 6 6
3 4 5 5 4 5 5 4 3 4 4 3 2 3 6 7 8 10 12 13 12 12 14 16 18 18 17 15 15 16 16 16 15 15 15 13 8 6 5 5 5 5 5 5
2 4 6 7 6 7 6 3 1 1 3 2 1 1 3 6 9 11 12 13 12 13 13 14 14 14 14 14 14 15 15 15 17 17 16 12 6 4 4 4 4 4 4 4
Wind_Speed
10 10 8 7 8 11 11 11 11 8 3 4 5 5 5 5 4 5 4 3 3 4 4 5 5 5 5 4 4 3 2 2 2 1 1 1 1 1 1 1 2 1 1 1
10 9 8 8 9 9 10 12 10 7 3 4 5 6 5 5 4 4 4 4 3 4 4 5 5 4 5 4 4 3 3 2 1 1 1 1 1 1 1 1 2 2 1 1
9 5 3 6 9 9 9 9 10 10 8 7 6 7 7 6 5 4 4 4 4 4 4 4 4 4 4 4 4 3 3 3 2 2 1 1 1 1 1 2 1 1 1 1
9 6 4 6 8 8 9 8 10 12 10 7 7 6 6 8 6 5 5 4 4 4 4 4 4 3 3 4 4 4 3 2 2 2 1 2 1 1 1 1 1 1 1 1
8 5 6 7 6 7 9 9 11 13 9 9 8 6 4 6 6 6 5 4 4 4 5 4 3 3 3 3 4 4 3 2 2 2 2 2 1 1 1 1 2 2 1 1
9 6 3 5 7 7 8 8 11 10 6 9 9 7 3 4 4 4 5 4 4 4 4 4 3 3 3 3 3 3 3 2 2 2 2 2 2 1 1 1 1 2 1 1
9 6 5 4 7 6 6 6 5 5 5 6 5 5 3 5 4 4 5 5 4 4 4 4 3 2 2 3 3 3 3 2 2 2 2 2 2 2 2 1 1 1 1 1
8 4 3 3 3 6 6 5 5 6 6 6 4 3 5 6 6 5 4 4 4 3 3 4 3 3 2 2 3 3 2 2 2 2 2 2 2 2 1 1 1 1 1 1
7 6 3 2 3 5 5 5 8 8 10 8 3 5 6 6 7 5 4 4 4 4 3 3 3 3 2 2 3 3 3 2 2 2 2 2 2 1 1 1 1 0 0 1
7 10 7 3 3 4 5 5 4 5 6 6 5 2 3 5 5 5 5 4 4 4 3 3 3 3 3 3 3 3 2 2 1 1 2 2 2 1 1 1 1 1 1 0
5 7 8 5 4 5 4 5 4 5 6 6 5 1 5 6 4 4 4 4 4 4 4 4 3 3 3 3 4 4 3 2 2 2 1 1 1 1 1 1 1 1 1 1
4 5 7 7 5 4 4 5 5 5 6 5 4 1 4 5 5 5 4 4 4 3 3 3 3 3 3 3 4 4 3 2 2 2 2 1 1 1 1 1 1 1 1 1
6 5 6 5 4 3 3 4 5 6 5 4 4 1 3 4 4 4 4 5 4 3 3 3 3 3 3 3 3 3 3 2 2 3 3 2 1 1 1 1 1 1 2 1
4 5 6 7 7 5 5 5 6 5 5 4 2 2 1 3 3 3 4 4 4 4 3 3 3 3 3 2 2 2 2 2 2 2 2 2 1 1 1 1 1 1 1 1
4 7 8 10 10 9 7 6 6 5 5 5 4 1 1 2 2 2 4 5 4 4 3 3 3 2 2 2 2 2 3 2 2 2 2 2 2 2 2 1 1 1 1 1
3 7 9 11 10 9 8 6 6 4 4 3 2 1 1 1 2 2 4 4 4 4 3 3 3 3 2 2 2 2 3 3 3 2 2 2 2 2 2 2 2 1 1 0
5 6 8 9 10 8 7 4 3 2 2 3 3 2 1 1 2 3 4 2 3 3 3 3 3 2 3 2 2 2 3 3 3 2 2 2 2 2 2 2 2 1 1 1
6 7 6 9 9 7 2 0 1 1 1 1 1 1 1 2 2 5 4 3 3 3 3 3 2 2 2 2 2 2 3 3 3 3 2 2 2 2 2 1 1 1 1 1
5 5 6 6 7 5 3 1 3 3 0 3 3 2 2 2 2 4 4 4 4 3 3 3 3 2 2 2 2 2 2 2 3 3 2 2 2 2 1 1 1 1 1 1
7 6 6 7 8 5 1 2 3 3 1 3 2 2 2 1 0 2 4 4 4 3 3 3 3 2 2 2 2 2 2 2 2 2 2 2 2 2 2 1 1 1 1 2
6 7 8 10 9 2 3 3 4 3 1 4 2 1 1 2 2 3 3 3 3 3 3 3 3 2 2 2 3 2 2 2 2 2 2 2 2 2 1 1 1 2 2 2
6 6 6 7 7 2 5 4 3 3 2 3 2 2 3 3 5 4 3 3 3 3 3 2 2 2 2 3 3 3 2 2 3 2 2 2 2 2 2 2 2 2 2 2
4 3 3 2 1 2 4 5 4 2 2 2 2 2 2 3 3 3 3 2 2 3 3 2 2 2 2 2 3 3 2 2 2 2 2 2 2 1 1 2 2 2 2 3
2 2 3 2 1 2 2 3 3 2 2 2 2 2 2 2 3 3 3 2 2 2 2 1 1 1 2 2 2 3 2 2 2 2 3 2 2 2 2 1 1 1 2 2
5 3 3 2 1 1 0 2 1 1 1 2 2 2 1 2 2 2 2 2 1 1 1 1 1 1 2 2 2 2 2 3 2 3 3 3 3 3 2 2 1 2 1 2
4 3 3 2 1 1 1 2 2 2 2 2 2 2 2 1 1 2 2 1 1 1 1 1 1 1 2 2 2 2 2 3 3 2 3 3 3 3 3 2 2 2 3 3
Wind_Direction
234 240 256 264 259 277 289 292 287 279 222 235 247 240 202 184 194 174 178 146 142 141 128 120 122 118 117 122 114 118 123 121 148 149 174 153 167 158 118 111 102 101 82 73
251 245 259 279 281 276 284 288 292 295 278 256 251 241 209 184 187 173 165 156 155 138 127 127 127 124 126 133 137 141 141 138 139 159 194 204 200 188 159 114 121 131 137 154
273 278 280 280 287 286 285 290 297 294 281 254 242 236 204 170 162 173 168 157 148 141 130 131 133 139 137 139 144 142 146 161 177 198 204 192 175 180 147 148 148 136 142 174
273 281 300 288 284 295 292 298 292 288 284 273 243 250 197 172 172 179 183 159 150 150 143 140 138 140 146 147 147 145 150 161 191 189 207 205 202 215 189 170 157 154 154 161
285 303 298 290 299 291 289 297 290 285 284 284 258 248 193 173 181 188 178 157 149 148 144 141 136 135 140 144 141 138 139 165 193 192 208 231 239 247 193 151 162 176 171 181
273 280 283 296 294 282 286 293 290 273 259 257 253 247 185 177 181 162 155 150 148 139 132 131 134 137 126 128 134 142 153 159 188 201 207 209 217 225 223 208 200 185 173 188
274 244 233 260 292 293 290 302 288 269 242 245 235 225 131 130 142 145 153 155 143 133 131 131 132 127 128 139 149 156 159 170 189 191 202 204 214 216 223 233 227 212 166 145
299 277 232 245 280 291 288 289 281 298 303 297 252 170 134 125 121 118 128 143 140 148 137 139 148 147 157 146 144 141 157 186 184 179 189 200 210 219 212 234 215 186 135 139
308 301 289 264 261 277 293 293 292 291 290 287 260 138 126 119 127 136 145 148 149 157 144 150 150 146 146 149 141 144 160 173 168 172 180 183 180 174 179 191 220 168 159 168
290 296 291 285 258 248 275 301 316 298 299 295 284 199 143 149 147 146 151 156 153 157 155 150 146 154 142 144 134 136 142 150 164 178 204 168 157 162 157 158 138 112 101 90
294 285 290 279 256 281 265 276 284 287 285 295 299 31 108 128 136 149 158 157 151 151 151 151 156 153 152 145 138 132 141 150 167 173 171 110 151 138 123 103 117 107 104 116
316 299 292 279 268 276 270 282 285 284 291 291 296 357 98 117 134 138 145 135 129 130 134 134 127 128 139 140 134 136 146 157 167 145 130 138 128 121 132 132 132 149 146 145
331 308 296 276 245 243 265 286 292 282 283 284 292 332 119 127 118 130 128 122 122 127 125 121 117 115 114 119 130 137 146 152 149 135 135 125 117 114 121 131 155 147 135 138
281 282 283 288 299 302 294 295 293 289 281 292 290 272 146 107 107 130 127 124 128 125 124 124 113 105 100 99 119 145 143 137 135 128 134 131 132 129 144 154 141 135 141 151
285 283 286 284 283 283 282 288 289 287 291 299 305 322 20 51 85 126 130 130 130 130 138 139 129 124 126 127 135 160 143 132 127 132 141 144 142 149 161 147 137 142 156 156
259 287 290 281 274 266 271 281 276 287 303 303 312 355 49 49 83 111 122 131 136 136 132 135 139 141 145 147 145 151 146 138 142 158 166 151 139 152 160 142 145 135 112 87
269 276 286 278 274 272 268 293 287 308 342 338 337 353 23 23 92 116 125 125 126 128 129 130 130 139 143 150 145 150 150 153 161 169 163 148 157 165 164 163 150 138 140 161
271 283 275 277 274 261 221 168 283 293 4 7 351 325 4 56 107 121 120 114 102 102 101 103 112 112 132 138 140 152 159 163 166 167 176 169 172 178 160 149 140 156 169 164
222 261 279 283 279 258 207 270 295 277 28 11 3 3 19 50 108 108 92 92 93 88 92 102 114 125 129 139 131 143 156 166 175 180 183 182 174 161 151 149 145 175 193 206
202 220 254 274 280 272 305 356 312 279 234 2 4 9 21 14 146 85 87 90 99 96 101 116 129 132 134 141 143 153 159 170 175 180 179 172 162 159 162 171 195 212 214 234
235 235 243 260 265 263 356 340 305 277 349 17 25 34 40 31 51 102 106 99 98 105 109 120 135 145 148 148 148 152 173 186 180 180 172 151 147 161 168 182 205 231 243 248
257 264 261 266 266 276 5 3 22 42 21 8 26 44 57 72 91 104 99 97 111 116 119 122 127 139 150 157 158 170 193 192 182 178 173 161 158 187 187 184 210 230 243 253
255 272 292 308 336 73 38 51 56 44 27 14 0 43 59 82 103 103 99 96 101 115 115 118 140 139 139 157 167 187 200 205 193 172 171 170 168 185 198 191 216 233 237 250
277 261 264 259 168 110 78 77 67 29 9 10 18 32 68 80 96 100 100 89 81 96 111 121 138 148 153 168 185 189 190 193 197 183 178 178 182 198 202 222 243 256 267 272
306 302 280 261 247 271 46 50 59 19 343 32 42 31 71 89 99 106 111 109 112 108 115 156 187 191 177 175 173 181 183 184 198 197 192 201 206 208 206 220 255 269 287 287
275 287 284 276 260 285 340 351 353 355 356 0 359 14 38 65 106 116 122 133 158 153 148 183 206 217 202 190 179 177 185 190 196 202 212 223 219 210 213 213 214 233 229 229